EW5196 Weather Reports


time (UTC)temp
C
wind
direction
speed
KPH
gust
KPH
rain 1hr
cm
rain 24hr
cm
rain mn
cm
humidity
%
barometer
mb
20260510063520 15 136 1.6 3.2 0.00 0.00 0.00 92 1012.9
20260510063017 15 155 3.2 3.2 0.00 0.00 0.00 91 1012.7
20260510062512 15 144 3.2 3.2 0.00 0.00 0.00 91 1012.9
20260510062008 15 144 3.2 3.2 0.00 0.00 0.00 91 1012.8
20260510061505 15 154 3.2 3.2 0.00 0.00 0.00 91 1012.9
20260510061001 15 161 3.2 3.2 0.00 0.00 0.00 91 1012.9
20260510060458 15 150 3.2 3.2 0.00 0.00 0.00 90 1012.9
20260510055954 15 141 3.2 3.2 0.00 0.00 0.00 91 1012.8
20260510055450 15 154 3.2 3.2 0.00 0.00 0.00 91 1012.7
20260510054948 15 158 3.2 3.2 0.00 0.00 0.00 90 1012.7
20260510054443 15 160 3.2 3.2 0.00 0.00 0.00 90 1012.9
20260510053938 15 158 3.2 3.2 0.00 0.00 0.00 89 1012.9
20260510053434 15 151 3.2 3.2 0.00 0.00 0.00 88 1012.9
20260510052931 15 142 3.2 3.2 0.00 0.00 0.00 88 1012.9
20260510052426 16 158 3.2 3.2 0.00 0.00 0.00 88 1012.8
20260510051923 16 150 3.2 3.2 0.00 0.00 0.00 87 1013.0
20260510051419 16 147 3.2 3.2 0.00 0.00 0.00 87 1012.9
20260510050916 16 149 3.2 3.2 0.00 0.00 0.00 87 1012.9
20260510050413 16 156 3.2 3.2 0.00 0.00 0.00 86 1012.9
20260510045910 16 160 3.2 3.2 0.00 0.00 0.00 86 1012.9
20260510045407 16 161 3.2 3.2 0.00 0.00 0.00 85 1012.9
20260510044904 16 149 3.2 3.2 0.00 0.00 0.00 85 1012.9
20260510044400 16 154 3.2 3.2 0.00 0.00 0.00 84 1012.9
20260510043857 16 143 3.2 3.2 0.00 0.00 0.00 84 1013.0
20260510043353 16 159 3.2 3.2 0.00 0.00 0.00 84 1012.7
20260510042851 16 148 3.2 3.2 0.00 0.00 0.00 84 1012.9
20260510042346 16 166 3.2 3.2 0.00 0.00 0.00 84 1012.9
20260510041843 16 159 3.2 3.2 0.00 0.00 0.00 83 1012.9
20260510041340 16 148 3.2 3.2 0.00 0.00 0.00 83 1012.5
20260510040838 16 156 3.2 3.2 0.00 0.00 0.00 83 1012.9
20260510040334 16 151 3.2 3.2 0.00 0.00 0.00 83 1012.6
20260510035829 16 167 3.2 3.2 0.00 0.00 0.00 82 1012.6
20260510035326 16 152 3.2 3.2 0.00 0.00 0.00 82 1012.4
20260510034822 16 155 3.2 3.2 0.00 0.00 0.00 81 1012.6
20260510034320 16 166 3.2 3.2 0.00 0.00 0.00 81 1012.6
20260510033816 16 148 3.2 3.2 0.00 0.00 0.00 80 1012.4
20260510033313 16 155 3.2 3.2 0.00 0.00 0.00 80 1012.4
20260510032810 17 156 3.2 3.2 0.00 0.00 0.00 79 1012.6
20260510032306 17 146 3.2 3.2 0.00 0.00 0.00 79 1012.4
20260510031801 17 153 3.2 3.2 0.00 0.00 0.00 78 1012.3
20260510031257 17 158 3.2 3.2 0.00 0.00 0.00 78 1012.3
20260510030751 17 159 3.2 4.8 0.00 0.00 0.00 79 1012.4
20260510030248 17 158 3.2 3.2 0.00 0.00 0.00 79 1012.5
20260510025746 17 155 3.2 3.2 0.00 0.00 0.00 79 1012.3
20260510025244 16 151 3.2 3.2 0.00 0.00 0.00 79 1012.4
20260510024740 16 159 3.2 3.2 0.00 0.00 0.00 79 1012.3
20260510024236 16 156 3.2 4.8 0.00 0.00 0.00 79 1012.1
20260510023732 16 147 3.2 3.2 0.00 0.00 0.00 79 1012.2
20260510023229 16 149 3.2 3.2 0.00 0.00 0.00 79 1012.4
20260510022725 16 149 3.2 3.2 0.00 0.00 0.00 79 1012.3
20260510022220 16 154 3.2 3.2 0.00 0.00 0.00 78 1011.9
20260510021715 17 153 3.2 3.2 0.00 0.00 0.00 79 1012.0
20260510021213 16 153 3.2 3.2 0.00 0.00 0.00 79 1011.9
20260510020707 16 154 3.2 3.2 0.00 0.00 0.00 79 1011.7
20260510020202 16 147 3.2 3.2 0.00 0.00 0.00 78 1011.8
20260510015658 17 142 1.6 3.2 0.00 0.00 0.00 78 1011.7
20260510015155 17 151 3.2 3.2 0.00 0.00 0.00 78 1011.7
20260510014650 17 153 3.2 3.2 0.00 0.00 0.00 78 1011.5
20260510014148 17 162 3.2 3.2 0.00 0.00 0.00 77 1011.5
20260510013643 17 155 3.2 3.2 0.00 0.00 0.00 76 1011.6
20260510013139 17 157 3.2 3.2 0.00 0.00 0.00 76 1011.6
20260510012638 17 155 3.2 3.2 0.00 0.00 0.00 77 1011.3
20260510012134 17 161 3.2 3.2 0.00 0.00 0.00 75 1011.2
20260510011629 17 162 3.2 4.8 0.00 0.00 0.00 76 1011.4
20260510011125 18 160 3.2 3.2 0.00 0.00 0.00 75 1011.3
20260510010621 18 156 3.2 3.2 0.00 0.00 0.00 73 1011.3
20260510010119 18 159 3.2 3.2 0.00 0.00 0.00 72 1011.1
20260510005614 18 158 3.2 3.2 0.00 0.00 0.00 70 1011.2
20260510005111 18 155 3.2 3.2 0.00 0.00 0.00 70 1010.8
20260510004609 18 157 3.2 3.2 0.00 0.00 0.00 70 1010.9
20260510004107 18 158 3.2 3.2 0.00 0.00 0.00 69 1010.9
20260510003604 19 153 3.2 3.2 0.00 0.00 0.00 70 1010.7
20260510003100 19 158 3.2 3.2 0.00 0.00 0.00 68 1010.9
20260510002554 20 148 3.2 3.2 0.00 0.00 0.00 70 1010.8
20260510002051 20 151 1.6 3.2 0.00 0.00 0.00 68 1010.6
20260510001548 20 163 3.2 3.2 0.00 0.00 0.00 65 1010.7
20260510001048 20 161 3.2 3.2 0.00 0.00 0.00 64 1010.7
20260510000542 21 153 3.2 3.2 0.00 0.00 0.00 63 1010.6
20260510000039 21 159 3.2 3.2 0.00 0.00 0.00 63 1010.6
20260509235536 21 161 3.2 3.2 0.00 0.00 0.00 64 1010.4
20260509235033 21 161 1.6 3.2 0.00 0.00 0.00 60 1010.2
20260509234529 22 153 1.6 3.2 0.00 0.00 0.00 59 1010.1
20260509234027 22 173 1.6 3.2 0.00 0.00 0.00 54 1010.2
20260509233524 22 183 1.6 3.2 0.00 0.00 0.00 54 1010.4
20260509233021 22 164 3.2 3.2 0.00 0.00 0.00 53 1010.2
20260509232518 23 169 3.2 3.2 0.00 0.00 0.00 51 1010.1
20260509232015 23 170 3.2 3.2 0.00 0.00 0.00 50 1010.5
20260509231511 23 175 3.2 3.2 0.00 0.00 0.00 50 1010.1
20260509231009 23 167 1.6 3.2 0.00 0.00 0.00 51 1010.3
20260509230505 23 163 3.2 3.2 0.00 0.00 0.00 50 1010.4
20260509230002 23 177 3.2 4.8 0.00 0.00 0.00 50 1010.2
20260509225458 23 165 3.2 3.2 0.00 0.00 0.00 49 1010.2
20260509224953 23 175 1.6 4.8 0.00 0.00 0.00 49 1010.0
20260509224449 23 186 1.6 3.2 0.00 0.00 0.00 49 1010.0
20260509223946 23 148 3.2 4.8 0.00 0.00 0.00 48 1010.1
20260509223443 24 167 1.6 4.8 0.00 0.00 0.00 48 1010.2
20260509222940 24 176 3.2 4.8 0.00 0.00 0.00 49 1010.2
20260509222435 24 173 1.6 4.8 0.00 0.00 0.00 49 1010.2
20260509221932 24 185 3.2 4.8 0.00 0.00 0.00 48 1010.2
20260509221429 23 159 0.0 3.2 0.00 0.00 0.00 49 1010.2
20260509220924 23 168 3.2 3.2 0.00 0.00 0.00 49 1010.0
20260509220420 23 161 3.2 3.2 0.00 0.00 0.00 48 1010.3
20260509215917 23 185 1.6 4.8 0.00 0.00 0.00 49 1010.1
20260509215412 24 159 3.2 3.2 0.00 0.00 0.00 49 1010.0
20260509214910 24 142 3.2 3.2 0.00 0.00 0.00 47 1009.8
20260509214407 25 195 3.2 4.8 0.00 0.00 0.00 48 1009.8
20260509213904 23 166 1.6 3.2 0.00 0.00 0.00 48 1009.8
20260509213359 23 146 3.2 3.2 0.00 0.00 0.00 48 1009.8
20260509212858 23 166 4.8 4.8 0.00 0.00 0.00 47 1009.7
20260509212355 23 153 3.2 4.8 0.00 0.00 0.00 46 1009.8
20260509211851 24 158 3.2 4.8 0.00 0.00 0.00 48 1010.0
20260509211346 24 188 1.6 4.8 0.00 0.00 0.00 49 1009.6
20260509210843 24 54 3.2 4.8 0.00 0.00 0.00 49 1009.6
20260509210341 25 156 3.2 3.2 0.00 0.00 0.00 48 1009.7
20260509205840 25 130 3.2 3.2 0.00 0.00 0.00 45 1009.6
20260509205335 25 240 0.0 3.2 0.00 0.00 0.00 47 1009.6
20260509204832 25 158 4.8 6.4 0.00 0.00 0.00 47 1009.5
20260509204328 24 145 1.6 4.8 0.00 0.00 0.00 49 1009.4
20260509203824 24 184 3.2 4.8 0.00 0.00 0.00 49 1009.6
20260509203321 25 189 3.2 3.2 0.00 0.00 0.00 47 1009.4
20260509202817 25 167 1.6 4.8 0.00 0.00 0.00 44 1009.4
20260509202314 25 232 0.0 3.2 0.00 0.00 0.00 45 1009.2
20260509201813 25 175 0.0 3.2 0.00 0.00 0.00 46 1009.1
20260509201310 25 125 4.8 4.8 0.00 0.00 0.00 47 1009.5
20260509200807 25 196 0.0 1.6 0.00 0.00 0.00 46 1009.6
20260509200302 25 193 0.0 3.2 0.00 0.00 0.00 46 1009.7
20260509195758 25 202 1.6 3.2 0.00 0.00 0.00 44 1009.7
20260509195253 25 210 4.8 4.8 0.00 0.00 0.00 44 1010.0
20260509194748 25 144 0.0 3.2 0.00 0.00 0.00 45 1010.0
20260509194244 25 259 0.0 3.2 0.00 0.00 0.00 46 1010.1
20260509193741 25 96 0.0 3.2 0.00 0.00 0.00 49 1010.2
20260509193241 24 215 0.0 3.2 0.00 0.00 0.00 47 1010.3
20260509192737 23 157 1.6 3.2 0.00 0.00 0.00 48 1010.3
20260509192232 24 184 0.0 3.2 0.00 0.00 0.00 48 1010.4
20260509191728 25 175 3.2 3.2 0.00 0.00 0.00 44 1010.6
20260509191225 25 74 0.0 1.6 0.00 0.00 0.00 45 1010.3
20260509190721 25 188 4.8 4.8 0.00 0.00 0.00 47 1010.6
20260509190218 24 213 0.0 4.8 0.00 0.00 0.00 49 1010.7
20260509185716 23 163 0.0 4.8 0.00 0.00 0.00 50 1010.9
20260509185212 24 150 1.6 4.8 0.00 0.00 0.00 47 1010.9
20260509184709 25 225 0.0 4.8 0.00 0.00 0.00 45 1011.0
20260509184207 25 153 1.6 4.8 0.00 0.00 0.00 46 1010.9
20260509183703 25 101 1.6 4.8 0.00 0.00 0.00 46 1011.1
20260509183158 25 112 1.6 3.2 0.00 0.00 0.00 46 1011.3
20260509182654 25 184 1.6 4.8 0.00 0.00 0.00 46 1011.0
20260509182152 23 173 3.2 4.8 0.00 0.00 0.00 50 1011.1
20260509181649 22 175 3.2 4.8 0.00 0.00 0.00 51 1011.4
20260509181146 22 148 3.2 4.8 0.00 0.00 0.00 50 1011.4
20260509180643 23 83 0.0 4.8 0.00 0.00 0.00 52 1011.6
20260509180139 23 142 1.6 3.2 0.00 0.00 0.00 50 1011.3
20260509175635 23 140 3.2 4.8 0.00 0.00 0.00 50 1011.5
20260509175132 23 160 0.0 3.2 0.00 0.00 0.00 49 1011.5
20260509174628 23 213 1.6 3.2 0.00 0.00 0.00 48 1011.8
20260509174123 23 80 3.2 3.2 0.00 0.00 0.00 49 1011.4
20260509173619 24 128 4.8 6.4 0.00 0.00 0.00 46 1011.4
20260509173115 23 77 4.8 6.4 0.00 0.00 0.00 51 1011.3
20260509172612 23 144 1.6 4.8 0.00 0.00 0.00 52 1011.4
20260509172108 23 221 3.2 3.2 0.00 0.00 0.00 49 1011.4
20260509171604 23 141 0.0 4.8 0.00 0.00 0.00 50 1011.6
20260509171100 23 122 4.8 9.7 0.00 0.00 0.00 49 1011.9
20260509170556 23 213 0.0 4.8 0.00 0.00 0.00 49 1011.8
20260509170053 23 220 1.6 9.7 0.00 0.00 0.00 50 1011.8
20260509165551 22 196 3.2 4.8 0.00 0.00 0.00 51 1011.7
20260509165047 22 143 4.8 8.0 0.00 0.00 0.00 52 1012.0
20260509164543 22 164 1.6 8.0 0.00 0.00 0.00 52 1012.0
20260509164044 22 150 3.2 8.0 0.00 0.00 0.00 51 1012.3
20260509163543 22 161 3.2 4.8 0.00 0.00 0.00 50 1012.4
20260509163038 22 23 3.2 4.8 0.00 0.00 0.00 51 1012.1
20260509162535 22 98 3.2 8.0 0.00 0.00 0.00 51 1012.4
20260509162031 21 183 1.6 4.8 0.00 0.00 0.00 52 1012.2
20260509161527 21 146 3.2 4.8 0.00 0.00 0.00 53 1012.3
20260509161022 21 115 4.8 9.7 0.00 0.00 0.00 49 1012.3
20260509160518 22 159 6.4 8.0 0.00 0.00 0.00 50 1012.4
20260509160014 22 66 3.2 3.2 0.00 0.00 0.00 51 1012.5
20260509155510 21 163 1.6 4.8 0.00 0.00 0.00 50 1012.7
20260509155006 21 184 1.6 9.7 0.00 0.00 0.00 51 1012.7
20260509154502 21 151 0.0 3.2 0.00 0.00 0.00 53 1012.5
20260509154000 21 155 4.8 4.8 0.00 0.00 0.00 53 1012.9
20260509153457 21 142 3.2 4.8 0.00 0.00 0.00 55 1013.0
20260509152953 21 173 3.2 4.8 0.00 0.00 0.00 54 1012.8
20260509152449 21 233 0.0 6.4 0.00 0.00 0.00 55 1013.2
20260509151947 21 97 4.8 6.4 0.00 0.00 0.00 57 1013.0
20260509151443 21 161 1.6 4.8 0.00 0.00 0.00 57 1013.1
20260509150941 20 128 0.0 3.2 0.00 0.00 0.00 58 1013.2
20260509150438 20 148 4.8 4.8 0.00 0.00 0.00 60 1013.1
20260509145936 20 118 6.4 6.4 0.00 0.00 0.00 59 1013.4
20260509145431 20 193 3.2 4.8 0.00 0.00 0.00 60 1013.2
20260509144927 20 129 4.8 4.8 0.00 0.00 0.00 60 1013.4
20260509144424 20 93 3.2 6.4 0.00 0.00 0.00 62 1013.6
20260509143921 19 312 3.2 4.8 0.00 0.00 0.00 63 1013.6
20260509143418 19 87 3.2 4.8 0.00 0.00 0.00 65 1013.6
20260509142914 18 106 1.6 4.8 0.00 0.00 0.00 66 1014.0
20260509142411 18 125 4.8 4.8 0.00 0.00 0.00 67 1014.1
20260509141906 18 235 0.0 3.2 0.00 0.00 0.00 66 1013.8
20260509141404 18 149 3.2 3.2 0.00 0.00 0.00 70 1014.0
20260509140901 18 167 3.2 4.8 0.00 0.00 0.00 69 1014.0
20260509140357 18 171 3.2 3.2 0.00 0.00 0.00 70 1013.9
20260509135855 18 146 4.8 4.8 0.00 0.00 0.00 70 1013.8
20260509135352 18 152 3.2 6.4 0.00 0.00 0.00 68 1013.8
20260509134850 17 207 1.6 4.8 0.00 0.00 0.00 72 1013.9
20260509134347 17 131 3.2 4.8 0.00 0.00 0.00 72 1014.0
20260509133843 17 106 1.6 4.8 0.00 0.00 0.00 73 1014.2
20260509133340 17 122 3.2 3.2 0.00 0.00 0.00 75 1014.4
20260509132840 17 131 3.2 3.2 0.00 0.00 0.00 75 1014.2
20260509132337 16 151 3.2 3.2 0.00 0.00 0.00 76 1014.3
20260509131834 16 142 3.2 4.8 0.00 0.00 0.00 77 1014.4
20260509131331 16 163 3.2 4.8 0.00 0.00 0.00 77 1014.6
20260509130827 16 114 1.6 4.8 0.00 0.00 0.00 77 1014.4
20260509130323 16 127 4.8 4.8 0.00 0.00 0.00 77 1014.4
20260509125819 16 130 3.2 3.2 0.00 0.00 0.00 77 1014.2
20260509125316 15 151 3.2 4.8 0.00 0.00 0.00 78 1014.1
20260509124812 15 128 3.2 4.8 0.00 0.00 0.00 78 1014.3
20260509124309 15 103 1.6 3.2 0.00 0.00 0.00 79 1014.1
20260509123808 15 109 1.6 4.8 0.00 0.00 0.00 80 1014.2
20260509123304 15 152 3.2 4.8 0.00 0.00 0.00 81 1014.4
20260509122800 15 125 3.2 4.8 0.00 0.00 0.00 82 1014.3
20260509122257 14 141 3.2 3.2 0.00 0.00 0.00 83 1014.4
20260509121754 14 110 3.2 4.8 0.00 0.00 0.00 83 1014.7
20260509121251 14 173 3.2 4.8 0.00 0.00 0.00 84 1014.5
20260509120749 13 139 3.2 3.2 0.00 0.00 0.00 84 1014.7
20260509120247 13 146 1.6 4.8 0.00 0.00 0.00 85 1014.9
20260509115745 13 126 1.6 3.2 0.00 0.00 0.00 85 1014.5
20260509115241 13 141 0.0 4.8 0.00 0.00 0.00 86 1014.8
20260509114740 13 136 1.6 3.2 0.00 0.00 0.00 87 1014.5
20260509114238 12 119 1.6 4.8 0.00 0.00 0.00 88 1014.4
20260509113737 12 127 3.2 4.8 0.00 0.00 0.00 89 1014.4
20260509113233 12 154 3.2 4.8 0.00 0.00 0.00 90 1014.5
20260509112730 12 152 1.6 3.2 0.00 0.00 0.00 91 1014.4
20260509112227 11 161 3.2 4.8 0.00 0.00 0.00 91 1014.4
20260509111724 11 149 3.2 4.8 0.00 0.00 0.00 91 1014.6
20260509111221 11 149 3.2 3.2 0.00 0.00 0.00 91 1014.3
20260509110718 11 152 3.2 3.2 0.00 0.00 0.00 91 1014.4
20260509110215 11 149 3.2 4.8 0.00 0.00 0.00 92 1014.4
20260509105713 10 161 3.2 4.8 0.00 0.00 0.00 92 1014.4
20260509105210 10 149 3.2 3.2 0.00 0.00 0.00 92 1014.6
20260509104707 10 153 3.2 3.2 0.00 0.00 0.00 93 1014.3
20260509104204 10 175 3.2 4.8 0.00 0.00 0.00 93 1014.2
20260509103702 10 147 3.2 3.2 0.00 0.00 0.00 93 1014.3
20260509103159 10 140 3.2 3.2 0.00 0.00 0.00 93 1014.5
20260509102657 10 151 3.2 3.2 0.00 0.00 0.00 93 1014.3
20260509102154 10 149 3.2 3.2 0.00 0.00 0.00 93 1014.5
20260509101650 10 140 3.2 4.8 0.00 0.00 0.00 93 1014.4
20260509101147 10 144 3.2 3.2 0.00 0.00 0.00 92 1014.4
20260509100645 10 151 3.2 3.2 0.00 0.00 0.00 92 1014.2
20260509100141 10 147 3.2 3.2 0.00 0.00 0.00 92 1014.3
20260509095638 10 146 3.2 3.2 0.00 0.00 0.00 91 1014.4
20260509095135 10 142 3.2 3.2 0.00 0.00 0.00 90 1014.5
20260509094631 10 147 3.2 3.2 0.00 0.00 0.00 90 1014.2
20260509094129 10 155 3.2 4.8 0.00 0.00 0.00 90 1014.7
20260509093627 10 139 3.2 3.2 0.00 0.00 0.00 89 1014.3
20260509093124 10 143 3.2 3.2 0.00 0.00 0.00 89 1014.5
20260509092622 10 152 3.2 3.2 0.00 0.00 0.00 88 1014.4
20260509092120 10 151 3.2 3.2 0.00 0.00 0.00 87 1014.7
20260509091618 10 159 3.2 3.2 0.00 0.00 0.00 87 1014.5
20260509091113 11 143 3.2 4.8 0.00 0.00 0.00 86 1014.5
20260509090611 11 141 3.2 3.2 0.00 0.00 0.00 85 1014.5
20260509090109 11 147 1.6 3.2 0.00 0.00 0.00 82 1014.6
20260509085606 11 155 3.2 3.2 0.00 0.00 0.00 81 1014.8
20260509085102 11 150 3.2 3.2 0.00 0.00 0.00 80 1014.5
20260509084559 11 154 3.2 3.2 0.00 0.00 0.00 80 1014.5
20260509084056 11 154 3.2 3.2 0.00 0.00 0.00 80 1014.3
20260509083554 11 175 3.2 3.2 0.00 0.00 0.00 81 1014.3
20260509083050 11 158 3.2 3.2 0.00 0.00 0.00 83 1014.3
20260509082548 11 160 3.2 4.8 0.00 0.00 0.00 82 1014.3
20260509082044 11 145 3.2 3.2 0.00 0.00 0.00 80 1014.2
20260509081542 11 159 3.2 3.2 0.00 0.00 0.00 79 1014.3
20260509081038 11 158 3.2 4.8 0.00 0.00 0.00 79 1014.3
20260509080536 11 114 1.6 3.2 0.00 0.00 0.00 80 1014.2
20260509080034 11 151 3.2 3.2 0.00 0.00 0.00 81 1014.2
20260509075531 11 122 1.6 3.2 0.00 0.00 0.00 81 1014.4
20260509075029 11 153 3.2 3.2 0.00 0.00 0.00 79 1014.3
20260509074526 11 148 3.2 3.2 0.00 0.00 0.00 79 1014.5
20260509074023 11 169 3.2 4.8 0.00 0.00 0.00 78 1014.6
20260509073519 11 143 3.2 3.2 0.00 0.00 0.00 79 1014.6
20260509073016 11 218 4.8 4.8 0.00 0.00 0.00 79 1014.6
20260509072512 11 151 3.2 3.2 0.00 0.00 0.00 80 1014.6
20260509072009 11 154 3.2 4.8 0.00 0.00 0.00 80 1014.6
20260509071506 10 157 3.2 3.2 0.00 0.00 0.00 83 1014.9
20260509071003 10 153 3.2 4.8 0.00 0.00 0.00 84 1014.6
20260509070500 10 146 3.2 4.8 0.00 0.00 0.00 85 1014.8
20260509065956 10 146 4.8 4.8 0.00 0.00 0.00 86 1014.8
20260509065452 10 168 1.6 4.8 0.00 0.00 0.00 87 1015.1
20260509064948 10 137 1.6 3.2 0.00 0.00 0.00 87 1015.1
20260509064446 10 167 3.2 4.8 0.00 0.00 0.00 87 1015.4
20260509063944 10 148 3.2 4.8 0.00 0.00 0.00 87 1015.1